User: anonymous   Login
Location: Ladrillo (historical)
(32.8195°N, 117.2231°W)
Time: 13:59:54
(UTC+00:00)
Language:

SRMSAT - Orbit

View from above orbital plane
View from above orbital plane
View from above satellite
View from above satellite

Ground track
Ground track

The orbit data is extracted from the following two-line orbital elements,

1 37841U 11058D   21109.84871892  .00000340  00000-0  41994-4 0  9996
2 37841  19.9725 295.2886 0011884  10.1109  19.2960 14.10691438491415
Epoch (UTC): 19 April 2021 20:22:09
Eccentricity: 0.0011884
inclination: 19.9725°
perigee height: 848 km
apogee height: 865 km
right ascension of ascending node: 295.2886°
argument of perigee: 10.1109°
revolutions per day: 14.10691438
mean anomaly at epoch: 19.2960°
orbit number at epoch: 49141

The dashed part of the orbit path shows where the satellite is in the earth's shadow,  

DLR